Flight Track Log - Related Links

Times and Time Zones

All times are in EDT time to prevent confusion due to time zone crossing. See the N822BB flight status page for this flight to view local times or setup timezone preferences in your user account.

Time Position Orientation Groundspeed Altitude Reporting Facility
EDT Latitude Longitude Course Direction KTS MPH feet Rate Location/Type
Mon 10:38:06 AM 40.9667 -72.3167 304° West 109 125 1,500  Level New York TRACON
Mon 10:39:06 AM 40.9833 -72.3500 304° West 128 147 2,100 650 Climbing New York TRACON
Mon 10:40:06 AM 41.0000 -72.4000 294° West 127 146 2,800 750 Climbing New York TRACON
Mon 10:41:06 AM 41.0167 -72.4333 304° West 132 152 3,600 650 Climbing New York TRACON
Mon 10:42:06 AM 41.0333 -72.4667 304° West 130 150 4,100 250 Climbing New York TRACON
Mon 10:43:06 AM 41.0667 -72.5167 311° West 141 162 4,100  Level New York TRACON
Mon 10:44:06 AM 41.0833 -72.5500 304° West 154 177 4,100  Level New York TRACON
Mon 10:45:00 AM 41.1000 -72.6000 294° West 152 175 4,100  Level New York TRACON
Mon 10:46:00 AM 41.1333 -72.6500 312° West 154 177 4,100  Level New York TRACON
Mon 10:47:00 AM 41.1500 -72.6833 304° West 151 174 4,100  Level New York TRACON
Mon 10:47:54 AM 41.1833 -72.7333 312° West 150 173 4,100  Level New York TRACON
Mon 10:48:54 AM 41.2000 -72.7833 294° West 153 176 4,100  Level New York TRACON
Mon 10:49:54 AM 41.2333 -72.8167 323° Northwest 148 170 4,100  Level New York TRACON
Mon 10:50:54 AM 41.2500 -72.8667 294° West 151 174 4,100  Level New York TRACON
Mon 10:51:48 AM 41.2667 -72.9167 294° West 155 178 4,100  Level New York TRACON
Mon 10:52:48 AM 41.3000 -72.9500 323° Northwest 155 178 4,100  Level New York TRACON
Mon 10:53:48 AM 41.3167 -73.0000 294° West 150 173 4,100  Level New York TRACON
Mon 10:54:54 AM 41.3333 -73.0667 288° West 166 191 4,100  Level New York TRACON
Mon 10:55:42 AM 41.3167 -73.1000 236° Southwest 141 162 4,100  Level New York TRACON
Mon 10:57:00 AM 41.3529 -73.0955 North  Level FlightAware Approximate
Mon 11:05:00 AM 41.4667 -73.1333 294° West  Level FlightAware Approximate
Mon 11:06:00 AM 41.4786 -73.1352 294° West  Level Estimated
Mon 11:07:00 AM 41.4786 -73.1352 294° West  Level Estimated
Mon 11:08:00 AM 41.4786 -73.1352 294° West  Level Estimated
Mon 11:09:00 AM 41.4786 -73.1352 294° West  Level Estimated

Login

Don't have an account? Register now (free) for customized features, flight alerts, and more!